User: anonymous
Location: Cherry Springs State Park
(41.6616°N, 77.8240°W)
Time: 03:00:28
(UTC-04:00)
Language:

Cosmos 1437 - Orbit

View from above orbital plane
View from above orbital plane
View from above satellite
View from above satellite

Ground track
Ground track

The orbit data is extracted from the following two-line orbital elements,

1 13770U 83003A   14245.41253363  .00007231  00000-0  23323-3 0  6340
2 13770 081.1661 304.0573 0010720 206.2738 286.0192 15.31948700729399
Epoch (UTC): 02 September 2014 09:54:02
Eccentricity: 0.0010720
inclination: 81.1661°
perigee height: 462 km
apogee height: 477 km
right ascension of ascending node: 304.0573°
argument of perigee: 206.2738°
revolutions per day: 15.31948700
mean anomaly at epoch: 286.0192°
orbit number at epoch: 72939

The dashed part of the orbit path shows where the satellite is in the earth's shadow,  

DLR